GFSMW_sfc_rhum_021.txt.gz
RH
42 41 44 50 56 46 45 51 56 56 54 52 55 58 58 56 55 54 50 58 56 58 60 67 66 69 68 71 71 77 79 67 77 65 65 78 75 72 68 72 69 63 53
42 44 51 59 60 51 49 48 48 49 51 55 57 60 62 59 60 60 58 60 58 59 49 64 65 68 74 75 78 76 74 79 79 84 79 82 70 68 64 70 71 71 74
47 47 49 58 56 56 50 47 49 50 55 55 59 59 60 62 61 59 58 57 58 54 57 61 68 72 74 80 80 80 82 94 89 88 94 97 93 82 70 67 68 85 88
44 47 53 58 58 62 57 50 48 49 54 55 59 62 68 66 68 67 67 60 57 55 53 59 65 71 75 78 84 82 92 89 94 90 75 84 80 80 78 80 68 72 84
46 50 54 54 57 57 57 53 50 50 54 56 60 66 67 69 68 71 66 64 61 61 56 58 70 78 86 92 93 92 82 82 83 84 83 81 88 94 98 91 88 74 80
44 44 48 50 56 58 57 57 54 51 56 54 61 70 69 67 71 69 71 69 69 69 66 70 81 87 88 89 90 84 81 83 82 80 81 87 85 84 87 92 86 92 88
47 46 46 46 51 55 58 54 55 51 57 61 67 66 68 70 71 70 71 69 74 72 75 72 86 89 87 89 91 91 88 90 91 93 96 94 90 85 89 93 92 87 83
42 43 42 44 51 55 57 57 52 49 56 60 63 66 65 73 70 66 68 70 78 78 73 76 84 82 84 85 86 90 90 92 94 94 97 93 91 89 88 88 97 88 96
40 40 48 53 53 56 58 59 54 51 53 61 62 61 63 66 65 64 72 80 76 61 70 76 79 77 80 83 84 91 94 94 95 96 94 95 94 96 94 92 89 96 88
45 50 53 56 57 57 60 56 52 50 51 54 56 58 57 58 63 75 73 73 72 71 70 74 79 83 84 86 87 91 89 94 96 93 94 94 93 90 93 92 89 94 97
54 56 56 55 53 54 54 55 48 49 52 53 54 53 54 57 70 72 72 69 71 70 68 74 73 76 83 83 86 86 86 90 90 86 82 81 84 78 74 76 72 73 82
51 55 55 54 54 54 51 48 50 50 52 48 48 48 52 55 66 68 68 67 68 65 66 63 58 60 60 65 72 76 72 70 68 69 70 67 51 66 70 72 68 68 66
55 55 55 57 54 49 45 46 47 53 48 44 47 47 50 57 63 64 68 63 64 62 57 54 58 59 63 59 62 67 69 69 66 68 67 63 61 64 65 65 75 75 58
57 60 62 60 52 46 44 42 44 50 48 45 47 48 54 57 61 62 62 61 60 57 51 53 56 60 58 59 62 61 71 71 66 71 70 65 64 66 70 67 67 62 72
58 59 60 61 50 44 45 43 44 47 52 50 51 54 57 58 61 65 71 65 59 56 50 52 58 60 56 54 73 72 76 77 76 73 64 64 64 62 66 63 72 73 75
60 59 55 47 45 39 38 37 42 48 52 51 52 55 67 64 69 76 68 76 58 51 53 56 59 65 50 74 70 74 81 75 74 74 67 69 64 66 65 68 70 77 93
64 58 54 50 43 39 37 43 41 42 44 40 53 58 67 72 76 79 81 71 53 56 60 61 66 70 75 74 69 73 79 81 78 78 75 63 50 70 70 71 70 73 74
59 58 57 53 37 39 41 41 38 40 42 47 60 65 69 74 81 83 81 68 59 56 62 69 74 77 64 74 76 81 90 88 84 80 76 74 75 74 72 74 82 84 83
59 50 37 36 38 39 38 38 38 39 38 65 70 75 84 89 91 93 98 88 69 70 75 80 83 86 84 78 82 89 97 93 87 77 72 71 72 73 82 89 96 92 89
33 34 33 32 36 37 36 39 39 42 57 62 61 67 73 86 88 92 86 80 68 78 84 85 88 82 87 77 66 86 98 98 92 86 78 74 71 91 90 97 98 97 84
31 31 30 34 36 35 37 40 44 56 55 58 63 69 87 92 92 92 89 71 74 88 93 93 90 84 83 80 67 72 88 88 93 86 82 82 78 80 86 82 97 94 87
27 28 34 37 37 34 40 46 56 54 58 63 66 69 76 78 73 73 71 72 86 86 94 94 94 93 91 69 72 68 66 69 91 91 88 91 92 89 82 89 94 95 94
32 32 38 40 38 42 50 57 59 60 67 70 72 71 68 62 63 69 74 81 85 94 95 92 96 95 91 91 70 75 73 75 89 91 93 93 87 86 93 94 94 97 98
36 39 39 42 48 48 54 61 60 66 70 75 77 75 80 80 76 71 75 87 96 96 92 94 95 97 95 94 88 88 97 83 88 87 93 95 90 95 96 92 92 94 95
40 41 46 50 52 59 62 61 60 69 73 78 79 87 87 87 83 77 79 93 88 88 94 96 95 98 98 92 74 72 81 84 93 91 95 91 91 92 92 90 89 90 91
49 49 52 58 68 68 69 64 67 72 78 82 85 93 93 95 90 89 89 79 80 74 72 68 92 94 75 69 65 65 67 74 79 88 95 95 96 94 88 93 93 91 95

GFSMW_sfc_rhum_024.txt.gz
RH
51 53 59 58 53 52 56 69 70 67 66 72 70 64 68 63 63 60 62 56 53 55 58 64 67 75 75 78 77 84 81 69 80 90 76 80 76 77 78 75 79 72 75
53 54 64 71 72 62 64 60 63 57 57 62 66 64 67 67 68 64 58 56 54 57 49 69 72 74 76 76 79 81 86 87 95 96 96 88 72 84 58 71 62 89 83
57 55 55 73 78 68 66 54 55 56 59 60 61 64 66 68 70 70 65 58 59 61 64 69 76 81 84 90 93 94 93 96 94 90 87 86 83 78 71 58 78 88 88
55 54 59 62 61 63 60 57 55 58 57 59 62 63 68 70 75 75 70 66 67 66 62 75 84 88 92 94 94 87 88 84 88 81 71 79 84 86 80 78 65 74 74
57 60 57 59 60 58 59 60 57 57 61 66 70 74 75 75 76 73 67 65 68 66 70 74 84 91 91 94 94 93 93 93 94 94 93 80 88 94 95 87 88 75 83
61 59 60 60 63 67 66 64 60 63 64 68 70 71 71 74 71 69 71 72 76 77 75 72 91 92 92 93 95 94 92 94 94 94 94 96 93 87 83 85 82 75 81
57 61 60 62 64 67 66 62 58 64 66 70 70 71 72 69 66 67 68 70 78 80 79 80 88 90 91 88 85 90 90 93 96 96 97 96 92 87 86 93 94 93 84
52 57 58 63 62 62 65 62 58 61 66 69 67 69 71 74 70 68 72 82 80 78 73 79 85 87 86 83 89 93 94 94 96 96 97 98 91 95 97 99 99 95 94
57 61 60 62 63 65 63 57 53 60 60 59 64 64 70 70 71 72 80 80 77 69 69 76 83 86 88 89 91 95 93 94 95 95 96 97 96 96 96 96 97 99 95
55 60 60 60 60 58 63 62 58 55 58 60 60 56 58 65 72 80 78 77 75 73 73 69 76 81 87 89 91 93 91 92 94 94 90 92 94 94 97 95 91 91 98
61 61 59 55 56 58 53 56 54 54 56 54 55 56 56 59 76 76 76 75 73 74 71 70 75 65 69 72 79 84 82 82 75 73 75 74 74 78 80 81 75 80 83
57 61 59 59 56 52 50 53 51 53 55 54 52 53 55 56 74 76 77 77 72 69 64 66 57 58 60 64 68 74 72 72 73 73 74 71 53 68 70 77 75 73 71
64 62 64 63 59 53 50 46 48 51 57 54 53 51 52 56 66 72 74 76 76 70 76 56 56 58 62 65 70 71 72 73 73 75 76 74 71 72 74 76 78 77 65
66 65 64 63 60 51 48 47 46 52 57 58 55 58 63 62 67 70 69 75 83 83 67 54 55 61 64 64 65 67 74 76 72 77 77 77 77 77 78 75 80 78 82
63 61 61 62 55 49 44 44 49 53 54 51 59 67 69 68 66 69 75 86 86 78 74 59 58 62 65 58 75 73 75 77 77 77 74 69 68 58 59 69 82 97 95
64 64 61 56 54 51 45 45 45 46 49 51 62 67 71 74 81 85 88 90 89 85 64 63 65 69 55 76 70 75 84 77 76 81 73 75 67 64 65 69 69 68 81
69 63 61 61 60 44 43 43 42 44 47 62 69 76 80 79 82 86 90 87 93 94 87 69 71 77 76 74 74 80 84 86 88 86 82 74 57 70 74 77 74 75 74
62 60 56 48 44 42 41 42 40 43 60 73 75 80 85 86 90 95 92 97 98 97 72 81 83 81 68 78 84 84 95 96 94 89 84 80 76 76 73 78 92 88 88
62 47 40 40 41 39 40 41 44 53 64 67 68 75 80 88 95 93 90 98 92 79 84 83 83 87 88 70 70 89 97 91 88 79 79 74 75 76 81 86 90 96 84
38 33 33 37 38 38 39 44 52 61 65 66 67 72 83 89 95 95 94 91 81 82 84 84 88 76 85 68 66 70 99 97 88 85 73 73 76 84 85 94 97 92 80
31 35 38 39 40 41 48 56 62 64 62 64 68 69 75 86 87 92 92 86 91 88 94 89 88 83 79 80 64 65 85 88 92 85 82 82 83 90 82 81 95 94 86
33 35 42 43 46 50 56 62 64 60 65 70 72 73 76 73 68 81 82 84 87 86 95 95 95 94 94 66 71 69 68 70 92 92 89 94 81 84 90 93 94 87 96
40 40 45 48 50 55 60 63 63 65 72 76 80 82 81 77 76 76 83 87 87 95 96 93 97 98 92 91 77 79 72 77 92 92 91 78 81 84 91 90 93 94 95
45 46 50 53 58 62 62 67 68 69 76 80 81 85 81 83 83 76 80 85 97 97 94 96 96 97 92 94 93 93 96 87 91 90 92 90 86 92 95 93 93 94 96
51 53 60 65 67 72 75 75 73 75 78 79 80 83 89 89 89 78 84 92 88 91 95 96 96 98 98 93 80 76 84 87 88 94 96 89 89 87 85 88 91 91 94
61 65 70 72 75 77 79 80 80 77 80 81 84 91 96 96 92 91 88 78 82 82 83 77 91 95 84 72 67 67 64 62 72 94 98 96 96 95 91 92 90 88 92

GFSMW_sfc_rhum_027.txt.gz
RH
66 66 62 61 68 76 74 78 76 74 81 83 82 72 83 74 71 60 63 63 58 59 68 71 75 80 80 83 84 86 86 85 93 96 73 85 82 80 72 74 78 79 75
62 61 69 76 76 76 77 63 61 58 61 64 71 67 73 75 71 68 66 62 63 63 66 79 82 86 87 90 95 96 96 96 96 98 97 88 64 77 58 72 56 88 86
62 67 71 82 81 68 61 56 57 57 60 64 66 68 69 74 73 71 68 68 67 68 76 81 85 89 92 94 95 96 94 98 95 93 96 96 96 83 74 63 77 88 84
67 66 72 74 69 66 63 61 61 61 61 63 64 63 66 75 80 75 72 70 69 73 73 78 86 88 94 93 94 87 95 95 97 93 82 92 95 87 84 82 70 80 76
60 66 63 60 61 64 68 66 65 66 68 68 70 77 75 75 75 72 67 67 71 73 70 78 89 90 93 93 92 92 92 94 94 96 97 95 94 96 96 85 79 63 80
61 63 64 63 66 68 71 68 70 71 71 70 70 72 74 74 71 71 70 73 78 79 75 77 92 91 92 92 94 94 93 94 96 97 98 97 91 83 90 88 85 81 81
68 69 62 62 62 69 72 66 68 70 71 72 73 73 73 70 67 66 71 72 80 82 76 78 90 93 92 93 94 94 93 93 96 96 97 98 98 95 94 97 96 98 95
58 63 68 68 66 66 68 66 66 68 71 70 71 72 70 72 70 69 75 78 83 80 76 74 89 90 92 93 92 94 95 94 96 95 96 98 98 96 96 99 100 95 95
68 67 67 68 66 63 61 62 64 70 70 68 70 71 76 76 77 75 78 84 84 74 80 76 85 87 90 92 93 96 95 94 95 95 96 96 93 92 97 97 98 93 91
66 67 66 65 62 60 62 63 64 61 60 60 62 60 64 70 76 79 81 83 82 79 78 76 78 78 79 86 90 93 92 92 94 91 79 80 85 84 89 88 95 97 93
68 67 61 56 55 53 55 60 59 57 59 61 61 64 64 64 70 81 83 82 82 79 74 74 75 70 67 70 74 76 79 74 73 74 75 76 76 79 79 83 83 85 90
65 63 58 55 51 54 52 58 55 56 58 62 63 61 62 61 65 78 81 84 83 75 77 78 80 78 67 64 66 70 70 72 74 75 77 77 58 76 79 80 81 80 78
69 64 64 63 60 55 50 49 52 54 60 62 60 62 67 70 72 72 75 79 81 83 84 84 86 73 65 64 70 72 72 72 74 76 78 78 77 81 82 80 82 84 74
67 67 65 62 55 49 52 49 52 59 56 55 62 67 71 72 73 73 74 77 82 91 91 87 73 70 68 64 65 68 73 76 74 77 79 78 78 80 80 74 86 81 91
64 63 63 57 59 61 50 48 49 50 52 58 65 74 76 77 80 83 84 87 93 90 87 83 79 72 66 58 71 73 75 79 80 78 75 74 72 68 64 61 74 81 81
62 60 62 62 65 48 46 43 43 47 50 61 72 75 77 79 82 86 92 94 90 80 92 91 84 73 58 75 74 82 90 82 81 89 82 78 75 72 64 68 70 72 82
69 68 67 63 48 45 43 42 44 48 52 71 73 77 84 86 89 94 95 90 90 94 94 91 79 79 76 76 79 81 88 93 96 92 88 74 58 70 72 76 74 76 79
66 62 48 46 46 44 42 45 45 48 71 73 74 78 82 86 91 96 87 91 92 97 91 86 81 80 77 74 69 85 92 91 88 78 78 81 79 76 72 84 92 81 77
65 46 42 43 43 39 40 45 48 63 66 68 70 74 80 88 91 95 95 96 97 88 87 82 84 86 79 65 64 73 94 86 83 75 76 73 77 80 85 94 94 87 79
39 35 39 40 41 42 46 50 61 65 67 68 70 75 77 85 91 91 95 92 86 82 81 80 84 71 83 68 63 68 98 97 89 83 76 76 76 85 80 91 96 95 79
34 40 42 44 47 49 54 61 65 66 64 68 72 73 76 82 82 89 92 90 92 86 93 88 89 82 77 79 66 66 93 91 90 87 84 84 81 76 86 87 96 96 91
39 43 48 50 52 54 60 64 68 63 67 73 75 78 83 78 70 82 87 85 85 85 95 95 95 94 94 70 75 73 71 71 96 93 90 94 74 82 87 90 92 89 94
45 46 52 56 57 60 65 70 70 71 74 79 80 83 77 81 80 78 87 86 85 95 95 96 98 96 92 91 76 84 76 75 96 91 80 74 75 79 84 88 89 92 94
52 54 59 66 69 67 72 78 79 79 82 79 78 82 81 81 86 77 78 84 97 97 95 97 97 97 93 95 93 96 97 84 85 91 94 91 85 85 86 88 88 92 95
59 63 71 76 76 79 82 82 84 79 76 75 76 81 83 84 90 78 85 91 89 92 96 96 96 99 99 94 83 79 92 92 91 95 98 97 91 89 87 86 86 87 88
68 76 78 81 86 85 86 86 85 87 86 90 86 90 90 96 94 90 87 78 84 84 84 84 93 96 85 79 66 66 65 63 69 94 100 100 100 98 93 92 91 90 90

GFSMW_sfc_rhum_030.txt.gz
RH
74 75 77 79 79 90 90 92 86 86 88 83 80 80 84 76 72 67 65 59 60 68 75 81 82 84 84 91 92 95 94 94 92 93 75 84 83 77 70 61 72 79 75
73 74 76 81 83 89 87 84 82 86 72 74 75 73 77 76 72 70 70 67 71 72 73 82 84 84 81 86 94 95 94 94 96 98 96 89 77 75 60 73 66 82 80
75 76 82 84 84 83 65 60 61 61 66 72 71 79 79 80 72 71 71 71 72 74 76 78 77 82 89 93 94 94 93 97 95 92 93 95 94 79 74 64 78 82 82
77 79 76 69 66 69 67 65 65 66 65 68 69 72 73 80 81 75 74 71 72 75 75 79 81 85 92 89 92 87 92 92 93 93 85 93 93 85 79 73 68 75 67
77 71 72 69 69 68 68 73 70 68 68 68 70 78 79 80 79 76 71 74 75 76 71 76 85 89 92 91 91 92 92 95 96 97 98 96 90 87 92 86 83 76 74
75 68 67 67 71 71 64 67 66 71 73 73 74 73 74 75 75 74 75 75 79 80 77 77 91 91 92 93 94 93 94 94 95 97 98 98 88 84 91 88 87 91 80
73 73 70 68 69 68 65 70 73 74 73 74 74 75 74 71 68 68 74 74 78 84 83 79 90 94 92 93 94 96 96 95 95 95 97 97 98 97 97 89 86 98 76
72 72 69 72 75 71 71 69 69 74 74 74 73 73 72 76 75 71 75 78 79 80 79 78 81 89 91 94 93 96 96 94 96 94 96 97 98 96 97 94 94 91 91
68 71 73 74 74 70 67 70 68 74 72 68 69 73 77 80 81 79 83 85 83 77 83 83 79 88 88 90 93 95 96 94 95 96 96 96 90 88 88 90 90 96 88
74 74 72 71 69 65 62 68 70 68 68 70 73 68 70 70 73 80 82 83 87 86 82 83 76 78 82 78 88 91 87 92 93 94 83 79 83 84 88 87 87 90 91
75 71 66 62 59 52 54 63 63 59 61 65 68 69 69 68 70 74 80 85 87 84 82 82 82 83 87 81 82 80 78 82 76 74 75 77 77 80 79 78 80 84 88
72 69 64 58 56 53 56 58 53 53 60 69 65 61 66 69 70 73 76 82 87 86 85 83 87 89 85 78 74 74 73 74 72 74 76 76 61 75 75 76 78 78 80
71 68 67 62 54 53 56 48 53 60 59 56 59 66 69 73 77 78 79 79 82 87 90 89 88 86 78 72 72 74 71 70 74 77 78 77 78 76 76 75 78 78 71
69 69 66 57 60 52 48 51 54 56 52 56 64 72 78 79 81 80 80 87 91 94 93 87 95 87 73 67 66 67 73 78 76 78 79 80 80 78 76 74 77 67 80
69 66 66 64 56 61 50 47 48 50 53 54 68 77 78 79 81 84 90 94 95 92 83 79 84 84 70 61 73 78 84 86 86 83 80 81 77 72 69 65 69 73 79
67 63 61 61 63 48 47 45 44 48 54 56 75 77 80 82 86 91 96 93 92 88 92 93 90 78 63 77 78 86 91 86 86 86 79 79 70 69 66 69 69 69 79
68 62 61 55 49 45 44 43 45 51 55 74 74 75 81 87 88 93 95 88 95 96 96 88 81 80 85 79 69 78 81 81 81 77 74 69 58 72 73 77 74 76 76
66 62 52 48 47 46 44 48 48 51 72 72 71 71 80 84 89 92 87 91 93 87 93 87 81 83 76 66 64 73 86 86 81 75 76 76 78 78 74 86 93 83 77
70 56 44 48 46 42 43 48 52 67 66 67 70 74 82 84 88 90 91 95 97 96 87 81 83 78 73 66 64 69 88 86 81 73 74 73 75 80 82 86 92 84 76
44 37 43 42 43 44 50 51 57 65 68 70 72 77 78 81 86 88 91 95 95 86 83 76 82 70 80 68 64 69 94 97 89 84 76 77 74 74 78 95 94 94 79
36 40 42 45 48 51 55 60 66 70 68 71 76 77 79 85 81 84 91 92 92 86 93 90 88 80 76 80 67 69 93 92 90 88 85 82 78 74 75 84 95 95 89
41 44 48 52 54 59 64 67 74 70 73 77 81 80 82 83 76 80 86 85 88 86 95 95 94 92 93 75 76 74 72 71 99 91 88 91 70 70 73 84 89 83 91
45 49 53 59 64 65 70 76 78 80 84 86 84 76 76 76 78 86 85 88 87 95 95 97 98 95 91 92 76 81 79 71 95 88 79 73 72 75 81 75 76 88 92
52 55 62 69 74 76 79 85 86 87 87 83 83 76 80 81 84 79 78 85 98 98 95 98 97 97 95 96 93 93 98 79 85 91 92 94 88 88 89 85 84 88 90
59 64 74 79 79 87 87 86 87 90 87 84 81 81 88 88 84 85 84 87 90 92 95 96 96 99 100 94 87 82 95 95 92 95 97 96 94 90 89 87 84 86 83
67 75 76 82 89 92 90 90 90 93 94 95 90 90 96 98 87 96 92 79 85 83 84 86 97 97 86 81 76 63 65 62 70 91 100 100 100 100 95 94 91 85 84

GFSMW_sfc_rhum_033.txt.gz
RH
65 70 77 85 86 87 81 80 94 98 94 88 71 55 58 51 50 45 49 51 51 51 52 46 48 48 47 56 58 51 54 44 55 46 40 42 56 49 44 38 38 43 44
69 72 72 78 80 89 94 90 82 79 63 50 51 49 49 49 48 48 51 50 53 50 49 51 48 52 44 54 59 59 47 48 59 54 47 40 35 44 40 45 40 50 40
68 69 74 78 83 84 79 68 63 59 54 53 54 53 53 52 48 48 45 49 53 49 51 52 50 52 51 48 57 57 55 46 49 57 51 47 43 51 41 42 42 46 44
63 62 63 63 61 60 59 56 54 51 53 57 53 55 48 50 51 50 48 46 54 52 48 52 56 57 55 54 52 50 54 57 50 49 48 57 57 56 49 38 41 50 48
58 56 50 49 48 54 54 54 52 52 53 51 54 53 57 55 52 52 54 55 55 58 54 54 58 59 55 56 61 65 66 61 59 52 52 57 51 50 63 60 52 44 41
56 51 49 50 50 54 58 60 53 56 57 57 59 59 59 56 51 52 52 51 52 53 57 55 60 62 62 66 64 69 70 67 65 59 59 59 56 52 65 59 63 56 46
54 51 52 52 53 53 56 57 52 54 57 58 57 57 56 56 53 51 50 53 50 50 52 60 62 61 66 68 69 71 71 70 68 66 58 62 61 63 74 62 60 62 44
55 54 54 54 53 54 54 54 52 55 55 56 53 53 54 53 54 58 56 56 56 56 62 63 63 61 64 68 70 66 69 75 76 72 69 71 68 67 61 61 70 69 54
55 55 56 58 58 56 56 58 54 56 58 54 54 59 58 58 58 58 60 58 60 54 58 64 64 62 63 63 64 63 65 68 70 71 71 69 66 65 61 61 62 69 70
55 58 57 60 54 52 54 56 56 63 55 52 56 52 52 52 53 55 56 55 55 56 58 58 60 63 62 63 66 68 60 61 67 65 66 60 59 56 60 58 58 57 62
57 59 55 53 47 44 46 52 56 47 47 50 53 52 49 51 52 51 53 54 57 53 58 61 65 65 69 72 68 65 59 58 57 56 56 55 53 52 50 50 47 47 49
57 52 48 45 42 41 50 54 44 44 48 47 44 46 48 48 50 52 52 54 54 58 60 66 66 69 76 80 64 56 58 58 58 54 55 55 47 54 51 50 50 49 48
55 52 49 45 42 46 47 39 45 43 38 36 37 45 50 51 53 52 54 58 62 66 72 72 73 70 64 62 58 58 58 54 56 57 58 56 57 56 52 53 54 53 54
56 50 50 46 44 42 40 42 43 40 36 36 40 50 56 55 55 56 60 67 72 71 70 71 78 82 67 58 55 52 56 60 59 60 60 59 58 56 53 56 61 60 64
56 53 50 48 46 47 43 39 37 38 38 38 46 57 58 57 59 61 66 73 71 66 72 72 73 62 53 50 62 62 61 58 54 53 49 50 57 66 61 54 55 58 59
56 53 51 48 52 46 37 37 35 37 41 42 51 58 58 59 62 63 70 76 72 73 75 75 64 60 53 79 71 68 56 51 47 47 46 45 54 53 65 67 70 68 66
57 51 52 53 47 37 38 34 34 39 42 49 58 56 58 58 61 61 66 66 72 73 80 70 60 58 61 66 64 76 54 51 49 48 48 47 45 58 54 61 66 74 75
57 56 54 46 38 35 33 37 35 39 47 56 54 53 56 60 59 60 60 64 76 76 76 66 60 57 50 64 64 66 52 53 50 50 51 51 54 57 62 75 65 59 56
59 52 39 38 36 32 34 37 39 45 52 51 51 52 59 61 59 60 64 64 70 80 80 63 60 55 50 63 63 62 63 62 59 55 53 55 56 69 76 73 79 62 54
52 37 37 34 32 35 39 40 40 49 51 54 53 55 60 60 61 62 61 66 74 80 65 61 59 64 61 63 64 64 69 80 68 60 53 62 65 74 73 81 81 83 63
32 36 34 34 37 41 43 45 50 52 53 57 58 58 59 61 62 62 59 62 64 70 75 76 69 63 64 62 65 68 76 72 70 64 59 56 70 68 69 73 80 87 76
34 35 39 42 45 46 48 49 53 54 59 60 60 61 62 60 60 61 58 59 65 71 76 89 83 68 77 70 67 69 74 70 76 74 63 68 68 68 69 67 72 74 76
47 39 41 48 52 52 54 56 57 63 63 66 62 63 63 62 62 59 59 60 61 68 74 70 76 69 73 69 73 73 82 71 75 73 66 70 70 68 62 68 72 74 74
40 45 49 52 56 60 65 66 65 64 68 68 65 63 64 63 69 60 58 60 68 71 70 72 72 71 72 75 68 71 73 71 68 70 62 76 72 70 73 65 64 67 71
50 49 56 61 60 67 69 65 66 71 70 70 68 70 69 73 74 65 61 65 68 74 71 69 77 90 86 77 76 80 74 74 70 75 72 67 68 61 61 63 62 60 60
54 58 62 62 65 69 70 69 72 75 78 80 75 77 78 79 77 70 65 80 83 84 82 82 91 92 89 81 78 76 65 64 67 66 74 79 82 75 63 70 67 63 61

GFSMW_sfc_rhum_039.txt.gz
RH
24 32 34 32 30 44 58 62 71 71 76 72 70 77 66 52 47 42 42 43 40 36 37 32 35 36 31 36 40 39 41 35 33 32 33 32 31 28 24 27 28 30 28
32 36 41 40 40 51 62 69 66 67 59 47 52 52 47 42 38 38 42 39 38 34 31 38 33 35 33 37 38 43 42 38 35 39 37 40 33 26 28 28 28 33 28
34 38 43 50 54 59 60 57 58 54 50 50 40 38 37 39 38 38 40 38 36 32 32 34 35 38 37 36 42 42 43 41 39 39 39 43 42 37 31 33 29 37 31
30 37 44 55 55 55 54 48 45 44 42 39 36 40 34 34 35 35 35 36 38 35 31 30 36 40 39 42 41 35 46 46 44 38 32 42 42 44 46 36 34 33 30
36 40 43 50 50 50 48 43 41 36 36 36 35 37 38 38 38 37 41 41 36 34 33 34 38 43 40 43 49 51 57 47 47 48 56 54 47 44 52 56 40 32 31
38 36 39 37 37 41 43 40 36 34 37 38 40 42 43 38 40 38 35 31 28 28 31 31 38 42 41 44 44 47 46 50 57 57 67 57 57 50 50 55 46 45 35
37 33 33 32 37 42 43 40 35 36 38 41 42 41 41 41 36 34 32 33 31 32 35 40 40 36 37 38 41 46 48 55 66 59 52 59 58 54 51 52 53 49 37
36 31 29 30 34 40 41 38 36 38 40 41 38 38 36 34 32 31 34 34 34 33 34 34 35 35 35 37 40 41 47 50 66 63 51 46 58 49 45 52 61 70 51
33 29 28 31 34 37 41 40 38 37 38 38 39 41 48 36 32 35 36 32 34 28 31 35 36 35 37 39 41 42 46 56 59 63 54 53 55 48 50 53 48 60 72
30 28 29 34 34 36 41 42 38 38 38 38 41 40 41 34 32 33 33 33 34 33 34 35 36 39 40 40 42 48 54 56 64 54 52 50 52 48 47 42 42 39 46
28 29 30 33 35 37 42 42 37 35 38 37 41 48 34 32 31 32 32 32 35 34 33 35 40 40 39 49 57 56 52 54 54 56 52 53 49 48 40 40 39 39 38
26 28 31 35 38 39 38 38 36 35 34 36 46 37 31 27 30 31 30 33 36 35 35 38 40 42 46 49 54 57 58 56 55 49 44 40 30 41 39 38 38 38 38
26 29 32 36 38 37 36 36 35 34 33 40 30 27 28 30 30 28 32 35 36 37 39 38 42 46 52 55 55 51 52 47 43 40 41 40 41 43 39 40 42 40 34
28 30 34 36 35 34 34 34 35 36 38 28 23 23 28 30 30 31 36 38 38 41 41 41 43 49 49 44 43 38 44 43 37 40 41 40 39 41 47 43 45 40 43
32 34 35 35 33 34 34 31 36 35 30 25 22 25 28 31 33 38 40 39 42 43 41 42 46 50 43 36 50 44 44 42 40 40 35 36 43 48 51 46 48 52 52
32 33 33 32 33 33 33 33 34 31 28 25 27 26 28 33 36 39 42 41 41 40 40 44 49 53 39 76 64 64 48 44 39 40 38 37 46 47 56 56 60 60 60
31 33 33 33 33 31 32 34 29 26 28 27 26 27 33 36 36 34 36 37 42 44 47 53 57 53 52 66 62 61 48 46 43 43 42 38 30 48 43 54 57 59 63
30 32 32 33 32 31 31 31 28 29 28 27 26 28 33 34 33 34 37 42 45 48 46 53 62 57 50 67 62 62 52 46 45 45 43 42 42 48 57 54 58 53 51
30 32 32 32 32 30 27 28 26 24 26 28 26 28 30 32 34 36 40 45 45 46 47 52 59 59 57 66 62 61 54 52 51 46 43 44 44 59 64 59 67 54 46
31 33 32 32 29 26 27 26 31 29 26 26 30 28 31 33 34 38 42 45 44 42 43 52 59 66 60 69 65 61 62 70 61 51 45 61 54 61 63 70 70 72 53
32 34 33 30 27 25 29 37 31 29 26 31 32 33 32 34 38 42 44 45 44 48 62 72 68 62 64 63 68 64 66 68 65 59 53 49 64 63 62 64 68 75 61
34 30 30 27 30 40 38 34 26 25 32 35 37 36 36 36 38 44 46 44 46 53 61 97 80 68 66 71 73 70 71 65 75 69 60 62 67 64 63 60 58 63 68
27 25 29 44 48 43 34 30 30 37 37 41 42 40 39 39 40 45 44 44 47 54 63 65 75 71 63 60 78 72 72 71 80 69 67 68 63 59 58 49 56 68 60
30 44 62 66 62 44 36 35 44 44 46 46 44 42 44 44 44 42 39 43 58 66 66 69 71 68 60 62 65 86 80 77 82 78 69 68 70 69 71 60 53 55 59
69 74 67 52 34 34 42 41 42 45 45 44 45 50 53 53 48 42 42 50 54 64 67 72 73 92 86 71 78 79 73 80 78 78 73 67 62 62 57 55 52 53 52
75 55 40 39 38 41 44 42 43 42 49 55 56 61 62 58 53 49 54 65 74 76 76 78 85 88 77 76 80 78 75 74 72 72 73 75 80 74 69 63 59 58 57